| time (UTC) | temp F | wind direction | speed MPH | gust MPH | rain 1hr in | rain 24hr in | rain mn in | humidity % | barometer mb |
| 20260502221820 | 49 | 224 | 3.0 | 4.0 | 0.00 | 0.00 | 0.00 | 46 | 1017.7 |
| 20260502221316 | 49 | 248 | 4.0 | 10.0 | 0.00 | 0.00 | 0.00 | 46 | 1017.7 |
| 20260502220814 | 49 | 251 | 5.0 | 8.0 | 0.00 | 0.00 | 0.00 | 46 | 1017.4 |
| 20260502220309 | 49 | 238 | 4.0 | 6.0 | 0.00 | 0.00 | 0.00 | 46 | 1017.7 |
| 20260502215806 | 50 | 187 | 7.0 | 10.0 | 0.00 | 0.00 | 0.00 | 44 | 1017.4 |
| 20260502215305 | 51 | 287 | 2.0 | 4.0 | 0.00 | 0.00 | 0.00 | 43 | 1017.5 |
| 20260502214800 | 51 | 265 | 5.0 | 7.0 | 0.00 | 0.00 | 0.00 | 42 | 1017.3 |
| 20260502214257 | 50 | 269 | 2.0 | 10.0 | 0.00 | 0.00 | 0.00 | 44 | 1017.4 |
| 20260502213754 | 50 | 153 | 3.0 | 6.0 | 0.00 | 0.00 | 0.00 | 44 | 1017.7 |
| 20260502213251 | 49 | 243 | 4.0 | 4.0 | 0.00 | 0.00 | 0.00 | 45 | 1017.4 |
| 20260502212749 | 50 | 255 | 8.0 | 11.0 | 0.00 | 0.00 | 0.00 | 44 | 1017.3 |
| 20260502212248 | 50 | 279 | 2.0 | 6.0 | 0.00 | 0.00 | 0.00 | 45 | 1017.3 |
| 20260502211744 | 50 | 111 | 2.0 | 7.0 | 0.00 | 0.00 | 0.00 | 44 | 1017.3 |
| 20260502211240 | 49 | 252 | 5.0 | 7.0 | 0.00 | 0.00 | 0.00 | 47 | 1017.3 |
| 20260502210737 | 49 | 223 | 3.0 | 7.0 | 0.00 | 0.00 | 0.00 | 46 | 1017.3 |
| 20260502210234 | 50 | 263 | 4.0 | 6.0 | 0.00 | 0.00 | 0.00 | 47 | 1017.4 |
| 20260502205732 | 50 | 279 | 6.0 | 8.0 | 0.00 | 0.00 | 0.00 | 47 | 1017.3 |
| 20260502205227 | 49 | 242 | 1.0 | 6.0 | 0.00 | 0.00 | 0.00 | 49 | 1017.5 |
| 20260502204725 | 49 | 278 | 6.0 | 10.0 | 0.00 | 0.00 | 0.00 | 48 | 1017.7 |
| 20260502204222 | 50 | 241 | 2.0 | 8.0 | 0.00 | 0.00 | 0.00 | 46 | 1017.4 |
| 20260502203720 | 51 | 278 | 2.0 | 6.0 | 0.00 | 0.00 | 0.00 | 45 | 1017.5 |
| 20260502203218 | 52 | 163 | 2.0 | 6.0 | 0.00 | 0.00 | 0.00 | 44 | 1017.4 |
| 20260502202711 | 51 | 231 | 6.0 | 9.0 | 0.00 | 0.00 | 0.00 | 44 | 1017.4 |
| 20260502202210 | 50 | 270 | 6.0 | 10.0 | 0.00 | 0.00 | 0.00 | 45 | 1017.5 |
| 20260502201707 | 50 | 258 | 6.0 | 9.0 | 0.00 | 0.00 | 0.00 | 44 | 1017.6 |
| 20260502201204 | 50 | 243 | 4.0 | 11.0 | 0.00 | 0.00 | 0.00 | 46 | 1017.6 |
| 20260502200659 | 51 | 245 | 2.0 | 4.0 | 0.00 | 0.00 | 0.00 | 45 | 1017.6 |
| 20260502200156 | 51 | 230 | 6.0 | 10.0 | 0.00 | 0.00 | 0.00 | 45 | 1017.6 |
| 20260502195655 | 51 | 268 | 3.0 | 6.0 | 0.00 | 0.00 | 0.00 | 44 | 1017.5 |
| 20260502195150 | 50 | 284 | 2.0 | 6.0 | 0.00 | 0.00 | 0.00 | 45 | 1017.6 |
| 20260502194647 | 50 | 249 | 9.0 | 14.0 | 0.00 | 0.00 | 0.00 | 45 | 1017.3 |
| 20260502194144 | 50 | 260 | 6.0 | 11.0 | 0.00 | 0.00 | 0.00 | 44 | 1017.6 |
| 20260502193641 | 51 | 265 | 10.0 | 13.0 | 0.00 | 0.00 | 0.00 | 43 | 1017.7 |
| 20260502193138 | 51 | 291 | 9.0 | 13.0 | 0.00 | 0.00 | 0.00 | 44 | 1017.5 |
| 20260502192633 | 50 | 246 | 6.0 | 14.0 | 0.00 | 0.00 | 0.00 | 44 | 1017.6 |
| 20260502192131 | 50 | 281 | 10.0 | 14.0 | 0.00 | 0.00 | 0.00 | 43 | 1017.9 |
| 20260502191627 | 52 | 273 | 10.0 | 13.0 | 0.00 | 0.00 | 0.00 | 43 | 1017.7 |
| 20260502191125 | 52 | 268 | 6.0 | 7.0 | 0.00 | 0.00 | 0.00 | 43 | 1017.6 |
| 20260502190622 | 51 | 170 | 5.0 | 7.0 | 0.00 | 0.00 | 0.00 | 43 | 1017.5 |
| 20260502190120 | 51 | 238 | 5.0 | 13.0 | 0.00 | 0.00 | 0.00 | 43 | 1017.5 |
| 20260502185614 | 51 | 262 | 3.0 | 9.0 | 0.00 | 0.00 | 0.00 | 43 | 1017.6 |
| 20260502185111 | 51 | 218 | 3.0 | 7.0 | 0.00 | 0.00 | 0.00 | 44 | 1017.6 |
| 20260502184608 | 51 | 225 | 9.0 | 14.0 | 0.00 | 0.00 | 0.00 | 42 | 1017.6 |
| 20260502184103 | 52 | 293 | 5.0 | 7.0 | 0.00 | 0.00 | 0.00 | 42 | 1017.6 |
| 20260502183559 | 52 | 278 | 7.0 | 10.0 | 0.00 | 0.00 | 0.00 | 42 | 1017.5 |
| 20260502183056 | 52 | 284 | 8.0 | 9.0 | 0.00 | 0.00 | 0.00 | 41 | 1017.6 |
| 20260502182551 | 51 | 259 | 6.0 | 16.0 | 0.00 | 0.00 | 0.00 | 42 | 1017.9 |
| 20260502182047 | 52 | 204 | 6.0 | 11.0 | 0.00 | 0.00 | 0.00 | 42 | 1017.9 |
| 20260502181546 | 52 | 218 | 8.0 | 15.0 | 0.00 | 0.00 | 0.00 | 41 | 1017.7 |
| 20260502181044 | 53 | 220 | 3.0 | 8.0 | 0.00 | 0.00 | 0.00 | 41 | 1017.7 |
| 20260502180540 | 53 | 231 | 5.0 | 9.0 | 0.00 | 0.00 | 0.00 | 42 | 1018.0 |
| 20260502170459 | 53 | 238 | 6.0 | 9.0 | 0.00 | 0.00 | 0.00 | 40 | 1018.0 |
| 20260502163943 | 53 | 279 | 2.0 | 4.0 | 0.00 | 0.00 | 0.00 | 40 | 1018.1 |
| 20260502163438 | 54 | 322 | 2.0 | 3.0 | 0.00 | 0.00 | 0.00 | 39 | 1018.2 |
| 20260502162936 | 53 | 241 | 2.0 | 13.0 | 0.00 | 0.00 | 0.00 | 43 | 1018.3 |
| 20260502162433 | 52 | 141 | 1.0 | 8.0 | 0.00 | 0.00 | 0.00 | 41 | 1018.4 |
| 20260502161930 | 52 | 276 | 3.0 | 10.0 | 0.00 | 0.00 | 0.00 | 39 | 1018.4 |
| 20260502161427 | 52 | 255 | 2.0 | 10.0 | 0.00 | 0.00 | 0.00 | 40 | 1018.4 |
| 20260502160925 | 52 | 250 | 2.0 | 10.0 | 0.00 | 0.00 | 0.00 | 40 | 1018.6 |
| 20260502160423 | 52 | 266 | 6.0 | 8.0 | 0.00 | 0.00 | 0.00 | 42 | 1018.5 |
| 20260502151901 | 51 | 203 | 4.0 | 8.0 | 0.00 | 0.00 | 0.00 | 43 | 1018.8 |
| 20260502151357 | 51 | 261 | 7.0 | 10.0 | 0.00 | 0.00 | 0.00 | 44 | 1018.6 |
| 20260502150855 | 50 | 236 | 4.0 | 11.0 | 0.00 | 0.00 | 0.00 | 43 | 1018.8 |
| 20260502150351 | 51 | 280 | 2.0 | 6.0 | 0.00 | 0.00 | 0.00 | 43 | 1018.7 |
| 20260502130739 | 43 | 265 | 4.0 | 7.0 | 0.00 | 0.00 | 0.00 | 67 | 1019.1 |
| 20260502130237 | 43 | 297 | 1.0 | 7.0 | 0.00 | 0.00 | 0.00 | 66 | 1018.8 |
| 20260502123723 | 43 | 262 | 2.0 | 4.0 | 0.00 | 0.00 | 0.00 | 68 | 1019.0 |
| 20260502123219 | 42 | 240 | 0.0 | 1.0 | 0.00 | 0.00 | 0.00 | 69 | 1019.1 |
| 20260502122716 | 42 | 253 | 2.0 | 4.0 | 0.00 | 0.00 | 0.00 | 70 | 1019.0 |
| 20260502122212 | 42 | 186 | 0.0 | 0.0 | 0.00 | 0.00 | 0.00 | 71 | 1019.3 |
| 20260502121711 | 42 | 242 | 1.0 | 2.0 | 0.00 | 0.00 | 0.00 | 72 | 1018.9 |
| 20260502121208 | 41 | 248 | 2.0 | 3.0 | 0.00 | 0.00 | 0.00 | 72 | 1019.1 |
| 20260502120704 | 41 | 222 | 1.0 | 3.0 | 0.00 | 0.00 | 0.00 | 73 | 1019.1 |
| 20260502120201 | 41 | 257 | 0.0 | 3.0 | 0.00 | 0.00 | 0.00 | 72 | 1019.1 |
| 20260502115659 | 41 | 245 | 1.0 | 2.0 | 0.00 | 0.00 | 0.00 | 73 | 1019.0 |
| 20260502115155 | 41 | 245 | 0.0 | 0.0 | 0.00 | 0.00 | 0.00 | 73 | 1019.0 |
| 20260502114651 | 41 | 223 | 0.0 | 0.0 | 0.00 | 0.00 | 0.00 | 74 | 1018.9 |
| 20260502114149 | 40 | 245 | 0.0 | 0.0 | 0.00 | 0.00 | 0.00 | 75 | 1019.0 |
| 20260502113646 | 40 | 252 | 0.0 | 0.0 | 0.00 | 0.00 | 0.00 | 78 | 1019.3 |
| 20260502113144 | 40 | 261 | 0.0 | 0.0 | 0.00 | 0.00 | 0.00 | 79 | 1019.0 |
| 20260502112642 | 39 | 246 | 0.0 | 0.0 | 0.00 | 0.00 | 0.00 | 80 | 1019.1 |
| 20260502112139 | 39 | 258 | 0.0 | 0.0 | 0.00 | 0.00 | 0.00 | 79 | 1019.0 |
| 20260502111636 | 39 | 257 | 0.0 | 0.0 | 0.00 | 0.00 | 0.00 | 80 | 1018.8 |
| 20260502111134 | 38 | 256 | 0.0 | 0.0 | 0.00 | 0.00 | 0.00 | 82 | 1018.7 |
| 20260502110631 | 38 | 254 | 0.0 | 0.0 | 0.00 | 0.00 | 0.00 | 83 | 1018.9 |
| 20260502110128 | 37 | 230 | 0.0 | 0.0 | 0.00 | 0.00 | 0.00 | 83 | 1018.8 |
| 20260502105626 | 36 | 189 | 0.0 | 0.0 | 0.00 | 0.00 | 0.00 | 82 | 1018.8 |
| 20260502105123 | 37 | 189 | 0.0 | 0.0 | 0.00 | 0.00 | 0.00 | 81 | 1018.9 |
| 20260502104620 | 37 | 189 | 0.0 | 0.0 | 0.00 | 0.00 | 0.00 | 81 | 1018.6 |
| 20260502104117 | 37 | 203 | 0.0 | 0.0 | 0.00 | 0.00 | 0.00 | 81 | 1018.7 |
| 20260502103615 | 37 | 249 | 1.0 | 1.0 | 0.00 | 0.00 | 0.00 | 81 | 1018.7 |
| 20260502103113 | 37 | 245 | 0.0 | 1.0 | 0.00 | 0.00 | 0.00 | 81 | 1018.6 |
| 20260502102609 | 37 | 195 | 0.0 | 0.0 | 0.00 | 0.00 | 0.00 | 81 | 1018.6 |
| 20260502102106 | 37 | 254 | 0.0 | 0.0 | 0.00 | 0.00 | 0.00 | 81 | 1018.7 |
| 20260502101604 | 38 | 193 | 0.0 | 0.0 | 0.00 | 0.00 | 0.00 | 80 | 1018.9 |
| 20260502101102 | 38 | 167 | 0.0 | 0.0 | 0.00 | 0.00 | 0.00 | 80 | 1018.6 |
| 20260502100600 | 38 | 157 | 0.0 | 0.0 | 0.00 | 0.00 | 0.00 | 79 | 1018.7 |
| 20260502091032 | 41 | 254 | 0.0 | 0.0 | 0.00 | 0.00 | 0.00 | 68 | 1018.8 |
| 20260502090529 | 42 | 264 | 0.0 | 0.0 | 0.00 | 0.00 | 0.00 | 65 | 1018.8 |
| 20260502071424 | 44 | 256 | 0.0 | 2.0 | 0.00 | 0.00 | 0.00 | 66 | 1018.5 |
| 20260502070922 | 44 | 277 | 0.0 | 1.0 | 0.00 | 0.00 | 0.00 | 71 | 1018.4 |
| 20260502070420 | 45 | 280 | 0.0 | 1.0 | 0.00 | 0.00 | 0.00 | 71 | 1018.4 |
| 20260502065918 | 45 | 245 | 1.0 | 2.0 | 0.00 | 0.00 | 0.00 | 70 | 1018.5 |
| 20260502065416 | 45 | 239 | 2.0 | 3.0 | 0.00 | 0.00 | 0.00 | 69 | 1018.7 |
| 20260502064914 | 45 | 268 | 1.0 | 4.0 | 0.00 | 0.00 | 0.00 | 69 | 1018.6 |
| 20260502064411 | 45 | 266 | 1.0 | 3.0 | 0.00 | 0.00 | 0.00 | 68 | 1018.6 |
| 20260502063908 | 45 | 232 | 1.0 | 3.0 | 0.00 | 0.00 | 0.00 | 68 | 1018.7 |
| 20260502063406 | 45 | 251 | 3.0 | 7.0 | 0.00 | 0.00 | 0.00 | 67 | 1018.7 |
| 20260502062903 | 45 | 239 | 2.0 | 3.0 | 0.00 | 0.00 | 0.00 | 67 | 1018.8 |
| 20260502062400 | 45 | 306 | 1.0 | 8.0 | 0.00 | 0.00 | 0.00 | 66 | 1019.0 |
| 20260502061859 | 45 | 239 | 1.0 | 6.0 | 0.00 | 0.00 | 0.00 | 66 | 1018.9 |
| 20260502061357 | 45 | 263 | 1.0 | 7.0 | 0.00 | 0.00 | 0.00 | 66 | 1018.8 |
| 20260502060852 | 46 | 252 | 2.0 | 7.0 | 0.00 | 0.00 | 0.00 | 67 | 1018.8 |
| 20260502060348 | 46 | 237 | 1.0 | 6.0 | 0.00 | 0.00 | 0.00 | 70 | 1018.9 |
| 20260502055845 | 46 | 263 | 6.0 | 9.0 | 0.00 | 0.00 | 0.00 | 71 | 1018.9 |
| 20260502055343 | 46 | 247 | 1.0 | 9.0 | 0.00 | 0.00 | 0.00 | 73 | 1019.0 |
| 20260502054842 | 46 | 213 | 3.0 | 7.0 | 0.00 | 0.00 | 0.00 | 75 | 1019.0 |
| 20260502054339 | 47 | 270 | 3.0 | 6.0 | 0.00 | 0.00 | 0.00 | 74 | 1019.0 |
| 20260502053837 | 47 | 281 | 1.0 | 3.0 | 0.00 | 0.00 | 0.00 | 74 | 1018.9 |
| 20260502053334 | 47 | 269 | 2.0 | 6.0 | 0.00 | 0.00 | 0.00 | 74 | 1018.7 |
| 20260502052831 | 47 | 266 | 1.0 | 1.0 | 0.00 | 0.00 | 0.00 | 74 | 1018.9 |
| 20260502052329 | 47 | 207 | 0.0 | 1.0 | 0.00 | 0.00 | 0.00 | 73 | 1018.8 |
| 20260502051827 | 47 | 261 | 0.0 | 2.0 | 0.00 | 0.00 | 0.00 | 73 | 1018.9 |
| 20260502051326 | 47 | 186 | 1.0 | 3.0 | 0.00 | 0.00 | 0.00 | 72 | 1018.8 |
| 20260502050821 | 47 | 243 | 2.0 | 3.0 | 0.00 | 0.00 | 0.00 | 72 | 1019.0 |
| 20260502050318 | 47 | 265 | 2.0 | 2.0 | 0.00 | 0.00 | 0.00 | 72 | 1018.8 |
| 20260502045815 | 47 | 238 | 2.0 | 4.0 | 0.00 | 0.00 | 0.00 | 72 | 1018.7 |
| 20260502045311 | 47 | 281 | 1.0 | 2.0 | 0.00 | 0.00 | 0.00 | 71 | 1018.8 |
| 20260502044809 | 47 | 233 | 3.0 | 4.0 | 0.00 | 0.00 | 0.00 | 71 | 1018.8 |
| 20260502044305 | 47 | 275 | 0.0 | 1.0 | 0.00 | 0.00 | 0.00 | 71 | 1018.7 |
| 20260502043802 | 47 | 267 | 2.0 | 6.0 | 0.00 | 0.00 | 0.00 | 71 | 1019.1 |
| 20260502043259 | 47 | 229 | 3.0 | 3.0 | 0.00 | 0.00 | 0.00 | 70 | 1019.0 |
| 20260502042759 | 47 | 243 | 4.0 | 6.0 | 0.00 | 0.00 | 0.00 | 70 | 1019.1 |
| 20260502042256 | 47 | 267 | 2.0 | 3.0 | 0.00 | 0.00 | 0.00 | 70 | 1018.8 |
| 20260502041754 | 48 | 255 | 2.0 | 3.0 | 0.00 | 0.00 | 0.00 | 70 | 1018.9 |
| 20260502041251 | 48 | 250 | 2.0 | 4.0 | 0.00 | 0.00 | 0.00 | 69 | 1018.8 |
| 20260502040748 | 48 | 156 | 0.0 | 1.0 | 0.00 | 0.00 | 0.00 | 69 | 1018.9 |
| 20260502040245 | 48 | 222 | 1.0 | 2.0 | 0.00 | 0.00 | 0.00 | 69 | 1018.8 |
| 20260502035741 | 48 | 243 | 1.0 | 2.0 | 0.00 | 0.00 | 0.00 | 69 | 1019.0 |
| 20260502035238 | 48 | 259 | 5.0 | 7.0 | 0.00 | 0.00 | 0.00 | 68 | 1019.0 |
| 20260502034735 | 48 | 234 | 2.0 | 3.0 | 0.00 | 0.00 | 0.00 | 68 | 1018.9 |
| 20260502034233 | 48 | 156 | 1.0 | 7.0 | 0.00 | 0.00 | 0.00 | 68 | 1018.9 |
| 20260502033731 | 49 | 219 | 1.0 | 2.0 | 0.00 | 0.00 | 0.00 | 71 | 1018.9 |
| 20260502033229 | 49 | 240 | 4.0 | 4.0 | 0.00 | 0.00 | 0.00 | 70 | 1019.0 |
| 20260502032725 | 49 | 248 | 3.0 | 4.0 | 0.00 | 0.00 | 0.00 | 70 | 1019.3 |
| 20260502032221 | 49 | 265 | 3.0 | 3.0 | 0.00 | 0.00 | 0.00 | 69 | 1018.9 |
| 20260502031719 | 49 | 262 | 2.0 | 3.0 | 0.00 | 0.00 | 0.00 | 69 | 1018.8 |
| 20260502031217 | 49 | 222 | 2.0 | 3.0 | 0.00 | 0.00 | 0.00 | 68 | 1019.1 |
| 20260502030716 | 49 | 272 | 1.0 | 3.0 | 0.00 | 0.00 | 0.00 | 68 | 1019.0 |
| 20260502030214 | 50 | 259 | 3.0 | 6.0 | 0.00 | 0.00 | 0.00 | 68 | 1019.1 |
| 20260502025710 | 50 | 271 | 2.0 | 3.0 | 0.00 | 0.00 | 0.00 | 69 | 1019.0 |
| 20260502025208 | 50 | 257 | 1.0 | 1.0 | 0.00 | 0.00 | 0.00 | 69 | 1018.9 |
| 20260502024705 | 50 | 224 | 4.0 | 4.0 | 0.00 | 0.00 | 0.00 | 69 | 1018.7 |
| 20260502024204 | 50 | 221 | 1.0 | 3.0 | 0.00 | 0.00 | 0.00 | 69 | 1018.7 |
| 20260502023701 | 50 | 253 | 3.0 | 4.0 | 0.00 | 0.00 | 0.00 | 69 | 1018.8 |
| 20260502023158 | 50 | 255 | 0.0 | 4.0 | 0.00 | 0.00 | 0.00 | 69 | 1018.6 |
| 20260502022655 | 51 | 247 | 1.0 | 4.0 | 0.00 | 0.00 | 0.00 | 69 | 1018.6 |
| 20260502022152 | 51 | 250 | 0.0 | 2.0 | 0.00 | 0.00 | 0.00 | 69 | 1018.4 |
| 20260502021650 | 51 | 262 | 1.0 | 3.0 | 0.00 | 0.00 | 0.00 | 68 | 1018.4 |
| 20260502021147 | 51 | 255 | 0.0 | 4.0 | 0.00 | 0.00 | 0.00 | 68 | 1018.4 |
| 20260502020644 | 51 | 245 | 3.0 | 8.0 | 0.00 | 0.00 | 0.00 | 68 | 1018.4 |
| 20260502020140 | 51 | 253 | 3.0 | 6.0 | 0.00 | 0.00 | 0.00 | 69 | 1018.3 |
| 20260502015639 | 51 | 245 | 1.0 | 2.0 | 0.00 | 0.00 | 0.00 | 70 | 1018.1 |
| 20260502015134 | 51 | 227 | 3.0 | 3.0 | 0.00 | 0.00 | 0.00 | 71 | 1018.0 |
| 20260502014632 | 51 | 251 | 1.0 | 3.0 | 0.00 | 0.00 | 0.00 | 72 | 1017.7 |
| 20260502014129 | 51 | 237 | 3.0 | 4.0 | 0.00 | 0.00 | 0.00 | 72 | 1017.5 |
| 20260502013625 | 51 | 247 | 2.0 | 4.0 | 0.00 | 0.00 | 0.00 | 72 | 1017.5 |
| 20260502013120 | 51 | 231 | 4.0 | 6.0 | 0.00 | 0.00 | 0.00 | 72 | 1017.4 |
| 20260502012618 | 51 | 245 | 2.0 | 6.0 | 0.00 | 0.00 | 0.00 | 71 | 1017.6 |
| 20260502012116 | 51 | 133 | 1.0 | 3.0 | 0.00 | 0.00 | 0.00 | 70 | 1017.6 |
| 20260502011613 | 51 | 173 | 3.0 | 7.0 | 0.00 | 0.00 | 0.00 | 69 | 1017.4 |
| 20260502011108 | 51 | 247 | 8.0 | 10.0 | 0.00 | 0.00 | 0.00 | 69 | 1017.6 |
| 20260502010606 | 52 | 216 | 6.0 | 8.0 | 0.00 | 0.00 | 0.00 | 67 | 1017.1 |
| 20260502005600 | 53 | 240 | 3.0 | 8.0 | 0.00 | 0.00 | 0.00 | 65 | 1016.9 |
| 20260502005058 | 53 | 287 | 3.0 | 7.0 | 0.00 | 0.00 | 0.00 | 63 | 1016.8 |
| 20260502004559 | 53 | 222 | 2.0 | 6.0 | 0.00 | 0.00 | 0.00 | 61 | 1016.7 |
| 20260502004056 | 54 | 127 | 2.0 | 7.0 | 0.00 | 0.00 | 0.00 | 59 | 1016.5 |
| 20260502003554 | 55 | 256 | 2.0 | 4.0 | 0.00 | 0.00 | 0.00 | 56 | 1016.2 |
| 20260502003050 | 56 | 270 | 7.0 | 10.0 | 0.00 | 0.00 | 0.00 | 53 | 1016.1 |
| 20260502002547 | 56 | 245 | 8.0 | 10.0 | 0.00 | 0.00 | 0.00 | 50 | 1016.0 |
| 20260502002044 | 57 | 248 | 2.0 | 6.0 | 0.00 | 0.00 | 0.00 | 49 | 1015.7 |
| 20260502001542 | 57 | 260 | 4.0 | 13.0 | 0.00 | 0.00 | 0.00 | 48 | 1015.7 |
| 20260502001039 | 58 | 251 | 3.0 | 11.0 | 0.00 | 0.00 | 0.00 | 47 | 1015.6 |
| 20260502000537 | 58 | 269 | 3.0 | 6.0 | 0.00 | 0.00 | 0.00 | 46 | 1015.3 |
| 20260502000034 | 58 | 247 | 5.0 | 9.0 | 0.00 | 0.00 | 0.00 | 45 | 1015.2 |
| 20260501235529 | 59 | 240 | 2.0 | 10.0 | 0.00 | 0.00 | 0.00 | 44 | 1015.0 |
| 20260501235025 | 59 | 267 | 4.0 | 4.0 | 0.00 | 0.00 | 0.00 | 43 | 1015.1 |
| 20260501234521 | 59 | 219 | 2.0 | 4.0 | 0.00 | 0.00 | 0.00 | 42 | 1015.1 |
| 20260501234020 | 60 | 242 | 3.0 | 7.0 | 0.00 | 0.00 | 0.00 | 41 | 1014.7 |
| 20260501233517 | 60 | 251 | 5.0 | 7.0 | 0.00 | 0.00 | 0.00 | 41 | 1014.5 |
| 20260501233014 | 60 | 252 | 4.0 | 6.0 | 0.00 | 0.00 | 0.00 | 40 | 1014.6 |
| 20260501232510 | 60 | 345 | 1.0 | 4.0 | 0.00 | 0.00 | 0.00 | 39 | 1014.4 |
| 20260501232008 | 61 | 242 | 4.0 | 6.0 | 0.00 | 0.00 | 0.00 | 38 | 1014.6 |
| 20260501231505 | 62 | 72 | 3.0 | 4.0 | 0.00 | 0.00 | 0.00 | 37 | 1014.5 |
| 20260501231003 | 62 | 237 | 1.0 | 3.0 | 0.00 | 0.00 | 0.00 | 37 | 1014.4 |
| 20260501230502 | 62 | 268 | 1.0 | 4.0 | 0.00 | 0.00 | 0.00 | 36 | 1014.4 |
| 20260501225959 | 62 | 247 | 3.0 | 8.0 | 0.00 | 0.00 | 0.00 | 36 | 1014.5 |
| 20260501225457 | 62 | 223 | 2.0 | 6.0 | 0.00 | 0.00 | 0.00 | 36 | 1014.5 |
| 20260501224952 | 62 | 242 | 3.0 | 9.0 | 0.00 | 0.00 | 0.00 | 36 | 1014.6 |
| 20260501224450 | 62 | 253 | 5.0 | 6.0 | 0.00 | 0.00 | 0.00 | 36 | 1014.8 |
| 20260501223947 | 62 | 193 | 2.0 | 4.0 | 0.00 | 0.00 | 0.00 | 36 | 1014.6 |
| 20260501223443 | 62 | 256 | 3.0 | 6.0 | 0.00 | 0.00 | 0.00 | 37 | 1014.6 |
| 20260501222938 | 62 | 248 | 4.0 | 7.0 | 0.00 | 0.00 | 0.00 | 36 | 1014.5 |
| 20260501222436 | 63 | 292 | 2.0 | 4.0 | 0.00 | 0.00 | 0.00 | 35 | 1014.6 |
| 20260501221932 | 64 | 237 | 6.0 | 11.0 | 0.00 | 0.00 | 0.00 | 34 | 1014.5 |